SCP
0 0 0 0 0 0 0 0 0 0 0 0 0 0 0 0 0 0 0 0 0 0 0 0 0 0 0 0 0 0 0 0 0 0 0 0 0 0 0 0 0 0 0
0 0 0 0 0 0 0 0 0 0 0 0 0 0 0 0 0 0 0 0 0 0 0 0 0 0 0 0 0 0 0 0 0 0 0 0 0 0 0 0 0 0 0
0 0 0 0 0 0 0 0 0 0 0 0 0 0 0 0 0 0 0 0 0 0 0 0 0 0 0 0 0 0 0 0 0 0 0 0 0 0 0 0 0 0 0
0 0 0 0 0 0 0 0 0 0 0 0 0 0 0 0 0 0 0 0 0 0 0 0 0 0 0 0 0 0 0 0 0 0 0 0 0 0 0 0 0 0 0
0 0 0 0 0 0 0 0 0 0 0 0 0 0 0 0 0 0 0 0 0 0 0 0 0 0 0 0 0 0 0 0 0 0 0 0 0 0 0 0 0 0 0
0 0 0 0 0 0 0 0 0 0 0 0 0 0 0 0 0 0 0 0 0 0 0 0 0 0 0 0 0 0 0 0 0 0 0 0 0 0 0 0 0 0 0
0 0 0 0 0 0 0 0 0 0 0 0 0 0 0 0 0 0 0 0 0 0 0 0 0 0 0 0 0 0 0 0 0 0 0 0 0 0 0 0 0 0 0
0 0 0 0 0 0 0 0 0 0 0 0 0 0 0 0 0 0 0 0 0 0 0 0 0 0 0 0 0 0 0 0 0 0 0 0 0 0 0 0 0 0 0
0 0 0 0 0 0 0 0 0 0 0 0 0 0 0 0 0 0 0 0 0 0 0 0 0 0 0 0 0 0 0 0 0 0 0 0 0 0 0 0 0 0 0
0 0 0 0 0 0 0 0 0 0 0 0 0 0 0 0 0 0 0 0 0 0 0 0 0 0 0 0 0 0 0 0 0 0 0 0 0 0 0 0 0 0 0
0 0 0 0 0 0 0 0 0 0 0 0 0 0 0 0 0 0 0 0 0 0 0 0 0 0 0 0 0 0 0 0 0 0 0 0 0 0 0 0 1 1 1
0 0 0 0 0 0 0 0 0 0 0 0 0 0 0 0 0 0 0 0 0 0 0 0 0 0 0 0 0 0 0 0 0 0 0 0 0 0 0 1 1 1 1
0 0 0 0 0 0 0 0 0 0 0 0 0 0 0 0 0 0 0 0 0 0 0 0 0 0 0 0 0 0 0 0 0 0 0 0 0 0 0 1 1 1 1
0 0 0 0 0 0 0 0 0 0 0 0 0 0 0 0 0 0 0 0 0 0 0 0 0 0 0 0 0 0 0 0 0 0 0 0 0 0 0 0 0 0 0
0 0 0 0 0 0 0 0 0 0 0 0 0 0 0 0 0 0 0 0 0 0 0 0 0 0 0 0 0 0 0 0 0 0 0 0 0 0 0 0 0 0 0
0 0 0 0 0 0 0 0 0 0 0 0 0 0 0 0 0 0 0 0 0 0 0 0 0 0 0 0 0 0 0 0 0 0 0 0 0 0 0 0 0 0 0
0 0 0 0 0 0 0 0 0 0 0 0 0 0 0 0 0 0 0 0 0 0 0 0 0 0 0 0 0 0 0 0 0 0 0 0 0 0 0 0 0 0 0
0 0 0 0 0 0 0 0 0 0 0 0 0 0 0 0 0 0 0 0 0 0 0 0 0 0 0 0 0 0 0 0 0 0 0 0 0 0 0 0 0 0 0
0 0 0 0 0 0 0 0 0 0 0 0 0 0 0 0 0 0 0 0 0 0 0 0 0 0 0 0 0 0 0 0 0 0 0 0 0 0 0 0 0 0 0
0 0 0 0 0 0 0 0 0 0 0 0 0 0 0 0 0 0 0 0 0 0 0 0 0 0 0 0 0 0 0 0 0 0 0 0 0 0 0 0 0 0 0
0 0 0 0 0 0 0 0 0 0 0 0 0 0 0 0 0 0 0 0 0 0 0 0 0 0 0 0 0 0 0 0 0 0 0 0 0 0 0 0 0 0 0
0 0 0 0 0 0 0 0 0 0 0 0 0 0 0 0 0 0 0 0 0 0 0 0 0 0 0 0 0 0 0 0 0 0 0 0 0 0 0 0 0 0 0
0 0 0 0 0 0 0 0 0 0 0 0 0 0 0 0 0 0 0 0 0 0 0 0 0 0 0 0 0 0 0 0 0 0 0 0 0 0 0 0 0 0 0
0 0 0 0 0 0 0 0 0 0 0 0 0 0 0 0 0 0 0 0 0 0 0 0 0 0 0 0 0 0 0 0 0 0 0 0 0 0 0 0 0 0 0
0 0 0 0 0 0 0 0 0 0 0 0 0 0 0 0 0 0 0 0 0 0 0 0 0 0 0 0 0 0 0 0 0 0 0 0 0 0 0 0 0 0 0
0 0 0 0 0 0 0 0 0 0 0 0 0 0 0 0 0 0 0 0 0 0 0 0 0 0 0 0 0 0 0 0 0 0 0 0 0 0 0 0 0 0 0
Wind_Speed
3 3 3 3 4 4 4 4 4 5 5 5 5 5 5 5 5 4 4 13 16 17 16 17 17 16 16 15 15 15 15 15 15 15 14 14 13 13 13 13 13 13 13
5 5 5 4 4 4 4 4 4 4 4 3 4 4 4 4 4 4 4 7 15 17 16 17 17 16 16 15 15 14 15 15 15 15 15 15 15 14 14 15 14 14 14
7 6 5 4 4 4 4 4 4 4 4 5 4 4 3 4 3 4 4 4 5 13 16 16 17 16 16 15 15 15 15 15 16 16 15 15 16 15 15 16 16 16 16
8 7 6 5 4 4 4 4 4 4 4 5 4 3 3 2 2 3 3 3 3 4 9 16 17 17 16 15 16 16 17 17 16 16 16 16 17 17 17 17 17 17 17
8 8 6 4 4 4 4 4 4 4 4 5 5 4 3 2 1 2 3 3 3 3 4 10 16 17 16 16 17 18 19 18 18 17 17 18 18 18 18 18 19 19 19
9 9 6 5 5 5 4 4 5 5 3 4 5 6 3 2 1 1 1 1 1 3 5 6 6 10 16 17 18 20 20 20 19 18 18 19 20 20 20 20 20 20 21
8 8 7 6 5 5 5 4 3 5 5 4 4 6 5 2 2 1 1 1 2 4 6 6 5 5 6 15 19 20 21 20 20 20 20 21 21 22 22 22 22 22 22
8 8 7 6 5 5 6 6 4 3 4 4 3 3 6 7 5 3 3 2 3 4 6 8 7 7 6 5 12 21 21 20 20 21 22 23 24 24 24 24 24 24 24
8 7 7 6 5 5 5 5 5 4 3 3 3 3 3 4 5 5 5 3 4 4 5 6 7 7 9 7 7 14 19 20 21 23 24 25 25 26 26 26 26 26 26
7 7 7 7 6 5 5 4 4 3 3 2 2 1 1 3 3 6 4 3 4 6 6 8 8 9 9 7 10 17 20 21 23 24 26 27 27 27 28 27 28 27 27
7 7 7 6 6 5 5 5 4 3 2 1 1 1 2 2 3 3 7 6 5 4 5 7 8 7 7 7 6 12 21 23 25 27 28 28 29 29 29 29 29 28 28
5 6 7 6 5 4 4 4 3 3 1 0 1 1 1 2 2 3 6 10 10 6 7 8 6 6 6 6 9 20 24 26 27 28 29 30 30 30 30 30 30 30 30
4 5 5 5 4 4 4 3 3 2 1 1 2 2 2 3 3 3 5 10 12 7 5 4 4 5 7 5 8 23 24 27 28 29 31 32 32 31 31 31 32 32 32
5 5 5 5 4 4 3 3 2 1 1 2 3 3 3 4 3 3 4 8 13 7 4 6 4 5 5 5 12 25 15 26 30 31 32 33 33 32 32 32 33 33 33
5 6 5 5 4 3 3 2 1 2 3 3 4 4 4 4 4 4 4 4 7 13 14 5 3 3 5 6 14 11 10 22 31 32 33 32 33 33 33 33 34 34 34
6 6 5 4 3 3 2 2 2 3 3 3 3 4 5 4 4 4 5 5 6 11 15 8 9 9 8 11 18 13 12 28 30 30 31 32 33 34 35 36 36 36 36
6 5 4 4 3 2 2 2 3 4 4 5 5 5 6 6 5 5 5 6 7 8 15 16 11 10 10 11 12 10 11 11 13 26 31 32 34 35 36 36 35 35 35
5 5 4 3 3 2 3 3 4 5 5 6 6 6 7 6 6 6 6 8 8 9 12 19 15 13 13 12 12 10 12 12 10 23 30 33 34 34 34 35 35 34 34
5 5 4 3 3 3 3 3 4 5 5 6 6 6 7 7 8 7 8 9 9 10 9 14 16 14 12 11 12 12 12 10 13 18 25 28 30 33 34 34 35 35 34
5 4 3 2 2 3 4 4 5 5 5 5 5 6 7 8 9 10 9 9 8 10 10 12 14 13 12 10 10 11 13 9 11 13 19 22 27 31 33 34 34 34 34
5 3 3 2 3 3 4 6 4 4 4 4 6 7 8 13 16 13 12 10 10 11 12 13 13 13 13 12 13 12 15 14 12 10 12 12 12 12 15 23 28 31 33
3 3 3 3 4 4 10 14 10 4 3 5 7 7 9 11 15 21 25 24 22 17 15 12 12 15 16 15 14 15 16 17 16 6 9 14 11 14 13 11 23 32 33
2 3 3 3 4 7 13 15 15 7 4 6 8 8 9 11 16 12 18 23 19 21 23 17 16 16 17 16 18 19 16 17 17 13 13 17 12 14 13 15 29 33 34
2 2 3 4 4 7 14 16 17 7 5 7 8 9 10 10 12 17 15 13 10 11 16 13 12 14 15 14 15 17 17 17 16 11 11 16 15 15 15 13 25 32 33
2 2 3 4 5 8 14 16 17 5 6 8 8 8 10 10 20 26 17 13 13 12 17 22 24 23 27 27 22 14 13 13 16 14 8 10 12 15 15 15 17 26 27
2 3 4 4 5 6 13 17 18 5 6 7 6 7 14 19 24 26 14 10 13 15 14 14 16 18 16 17 22 13 12 13 14 12 5 6 10 12 12 8 7 10 15
Wind_Direction
122 103 82 68 60 59 64 64 60 54 44 37 36 37 24 15 21 26 20 43 47 42 40 34 28 23 19 16 18 19 16 12 7 2 356 351 345 339 333 328 324 321 325
124 108 90 75 66 63 67 70 64 55 44 33 31 32 30 20 29 36 35 39 47 43 37 32 24 17 12 9 8 8 5 360 354 348 343 338 332 327 322 317 312 309 308
117 108 97 83 72 68 68 64 56 47 37 23 13 18 30 25 36 42 43 43 43 42 36 29 19 11 6 1 357 353 350 347 342 336 331 327 322 317 313 309 305 301 298
115 108 99 85 75 68 65 62 40 39 26 12 350 345 17 10 33 51 52 53 57 50 28 24 16 5 358 351 347 343 338 334 330 326 322 319 316 312 308 304 300 297 294
111 104 96 91 83 69 54 58 48 43 26 360 335 327 0 346 345 46 50 56 60 55 31 17 11 358 349 343 339 335 329 325 322 318 316 314 311 308 304 301 297 293 291
106 102 97 89 82 73 54 51 56 43 34 354 331 324 327 330 320 28 38 38 37 32 25 16 4 344 338 333 331 327 323 319 315 313 312 310 307 304 301 297 295 292 289
103 101 100 88 80 78 67 54 56 39 22 4 1 335 330 343 330 278 346 321 8 13 15 2 341 323 315 323 323 318 317 313 311 310 309 307 304 301 298 294 291 289 287
102 101 100 95 88 87 68 53 53 50 21 25 31 357 344 338 339 337 343 346 7 5 1 339 317 305 300 297 302 312 311 306 307 307 306 305 301 298 294 291 288 286 284
95 99 97 95 87 85 78 66 59 66 29 8 39 54 10 309 308 311 315 331 348 350 328 308 301 299 298 296 294 302 302 302 302 302 303 302 299 296 292 288 286 283 281
94 94 93 91 86 80 77 68 68 70 68 21 354 23 229 236 288 308 301 303 318 314 296 304 300 290 286 286 289 301 302 298 298 301 302 300 297 294 291 288 285 283 281
86 88 88 86 81 78 77 69 66 63 77 95 328 313 307 286 242 266 292 303 300 275 282 285 285 284 282 280 279 289 300 302 301 300 299 298 296 294 291 289 288 287 285
83 82 84 81 80 77 74 70 67 62 66 95 242 242 242 266 276 271 284 304 305 293 282 276 274 276 282 284 292 308 308 304 301 299 299 297 295 293 292 292 291 289 287
95 87 86 81 76 75 76 69 58 31 7 308 275 254 239 237 239 255 285 304 303 294 268 252 251 270 286 294 306 306 303 303 302 301 298 296 295 294 293 292 290 289 287
111 106 95 87 79 71 67 54 36 336 304 288 274 264 256 252 243 249 271 304 310 299 250 258 257 250 269 284 289 299 298 297 298 297 296 295 294 293 292 291 289 288 286
109 101 94 87 72 60 46 26 339 307 299 278 271 268 256 252 249 250 254 264 290 304 308 279 265 259 268 276 284 287 278 289 294 294 294 294 294 292 291 289 288 287 285
100 100 91 81 63 44 18 351 310 302 305 293 274 271 265 257 253 251 250 253 255 276 290 291 294 290 282 290 294 292 284 291 294 294 292 291 291 291 290 289 287 285 284
102 97 91 77 56 30 357 341 317 309 308 299 293 283 274 269 261 256 254 257 259 264 281 294 294 294 287 284 289 277 277 275 277 286 289 291 290 290 289 288 287 286 284
98 95 88 73 44 11 346 333 316 314 301 296 292 290 284 285 272 267 265 264 265 263 275 291 298 300 294 290 288 283 291 288 280 286 290 290 290 291 290 289 287 286 284
96 88 82 66 26 348 330 314 299 296 292 290 293 294 289 285 282 276 272 272 271 276 276 287 294 295 293 293 295 292 287 282 283 288 291 290 290 289 288 288 287 287 286
98 89 80 56 8 332 314 301 296 293 294 300 300 293 287 284 280 280 281 276 284 290 287 286 289 295 297 297 296 300 300 288 286 289 287 287 287 289 288 288 287 286 285
97 90 70 33 356 327 311 309 297 293 298 299 294 286 285 297 301 303 305 306 301 295 294 295 299 303 304 307 305 303 300 299 288 281 283 284 284 280 280 281 283 282 280
88 65 40 9 346 331 321 326 326 298 286 292 295 291 289 295 300 311 311 306 302 302 304 304 305 303 303 303 302 301 302 302 300 292 285 291 286 283 280 274 278 280 280
72 42 11 348 326 314 326 328 324 323 297 290 290 293 301 304 311 296 295 300 302 304 305 303 299 298 299 301 302 303 301 299 297 301 299 293 291 286 283 281 285 284 283
53 22 343 331 321 320 332 327 323 327 293 282 281 285 289 292 296 302 302 306 300 297 298 298 288 290 295 299 299 301 300 298 294 290 287 290 293 290 289 283 284 282 282
29 349 323 326 322 317 327 324 326 301 285 284 284 288 299 300 304 312 316 310 307 305 308 305 304 306 307 308 307 305 304 303 301 300 290 280 287 295 289 281 278 281 283
3 333 324 319 313 305 316 325 325 300 293 294 290 286 306 312 312 319 319 314 313 310 311 314 312 307 302 299 305 304 301 299 300 300 283 278 293 307 301 273 261 276 281